[[{"header":{"parameterUnit":"m.s-1","parameterCategory":1,"la1":30.2991,"la2":30.254,"lo1":-89.0895,"lo2":-89.0444,"dy":0.0017,"dx":0.0017,"nx":28,"ny":28,"refTime":"2023-04-25T21:00:00:Z","depth":0,"parameterNumber":2,"parameterNumberName":"U-component_of_WINDS"},"data":[0,0,0,0,0,0,0,0,0,0,0,0,0,0,0,0,0,0,0,0,0,0,0,0,0,0,0,0,0,0,0,0,0,0,0,0,0,0,0,0,0,0,0,0,0,0,0,0,0,0,0,0,0,0,0,0,0,0,-2.0185,-2.0186,0,-2.0266,-2.0267,-2.0268,-2.0287,-2.0286,-2.0285,-2.0285,-2.0371,-2.0374,-2.0377,0,0,0,0,0,0,0,0,0,0,0,0,0,-2.0049,-2.0051,-2.0185,-2.0186,-2.0187,-2.0266,-2.0267,-2.0269,-2.0287,-2.0286,-2.0285,-2.0285,-2.037,-2.0373,-2.0377,0,0,0,0,0,0,0,0,0,0,0,0,0,-2.0117,-2.0052,-2.0185,-2.0206,-2.0208,-2.0266,-2.0267,-2.0269,-2.0287,-2.0286,-2.0285,-2.0284,-2.0369,-2.0373,-2.0377,-2.0421,0,0,-2.039,-2.0392,0,0,0,0,0,0,0,0,-2.0113,-2.0122,-2.0202,-2.0204,-2.0207,-2.0265,-2.0251,-2.032,-2.0287,-2.0257,-2.0285,-2.0284,-2.0337,-2.0344,-2.0361,-2.0425,-2.0429,-2.0391,-2.0393,-2.0395,-2.0396,0,0,0,0,0,0,0,-2.0108,-2.0118,-2.0217,-2.0203,-2.0206,-2.0212,-2.0221,-2.0264,-2.0301,-2.026,-2.0261,-2.027,-2.0338,-2.0357,-2.0363,-2.043,-2.0391,-2.0394,-2.0397,-2.0399,-2.0535,-2.0536,0,0,0,0,0,0,-2.0099,-2.0114,-2.0215,-2.022,-2.0157,-2.0215,-2.0225,-2.0248,-2.0301,-2.0308,-2.0271,-2.0271,-2.035,-2.0358,-2.0366,-2.0421,-2.0395,-2.0399,-2.0402,-2.0534,-2.0535,-2.0536,0,0,0,0,0,0,-2.0096,-2.0108,-2.0211,-2.0168,-2.0181,-2.0218,-2.0244,-2.025,-2.0268,-2.0309,-2.0316,-2.0283,-2.035,-2.036,-2.0407,-2.0424,-2.0401,-2.0405,-2.0533,-2.0534,-2.0536,-2.053,0,0,0,0,0,0,-2.0092,-2.0107,-2.0123,-2.0168,-2.0183,-2.025,-2.0245,-2.0252,-2.0275,-2.0276,-2.0322,-2.0329,-2.035,-2.0401,-2.0411,-2.0429,-2.0408,-2.0531,-2.0534,-2.0535,-2.0529,-2.0531,-2.0534,0,0,0,0,0,-2.0087,-2.0119,-2.0124,-2.0136,-2.0204,-2.0251,-2.026,-2.0282,-2.0276,-2.0294,-2.032,-2.0328,-2.0421,-2.0405,-2.0418,-2.0437,-2.053,-2.0533,-2.0535,-2.0528,-2.0531,-2.0533,0,0,0,0,0,0,-2.0076,-2.0125,-2.0131,-2.0178,-2.021,-2.0254,-2.0276,-2.0285,-2.032,-2.0319,-2.0347,-2.0357,-2.0402,-2.0425,-2.0407,-2.0483,-2.0476,-2.048,-2.0466,-2.0469,-2.0471,-2.0464,-2.0412,0,0,0,0,0,-2.0079,-2.0112,-2.0153,-2.0191,-2.0206,-2.0238,-2.026,-2.0274,-2.0309,-2.0323,-2.0353,-2.0387,-2.0424,-2.0448,-2.0485,-2.0533,-2.0543,-2.0553,-2.0555,-2.0556,-2.056,-2.0587,-2.0592,-2.0544,-2.0544,-2.0544,0,0,-2.0085,-2.0116,-2.0135,-2.0189,-2.0216,-2.025,-2.025,-2.0286,-2.0312,-2.0329,-2.0374,-2.0398,-2.0438,-2.0486,-2.0509,-2.0506,-2.0576,-2.0559,-2.056,-2.0563,-2.059,-2.0595,-2.0599,-2.0546,-2.0546,-2.0545,0,0,-2.0114,-2.0141,-2.0175,-2.0201,-2.0241,-2.0263,-2.0271,-2.0314,-2.0329,-2.0376,-2.0389,-2.0421,-2.0484,-2.0512,-2.0535,-2.0575,-2.0584,-2.0587,-2.0598,-2.0624,-2.0628,-2.0631,-2.0646,-2.065,-2.0591,-2.0591,-2.0591,0,-2.0117,-2.0168,-2.0191,-2.0227,-2.025,-2.0266,-2.0301,-2.0326,-2.0377,-2.0393,-2.039,-2.0469,-2.0498,-2.0552,-2.0562,-2.058,-2.0591,-2.0581,-2.0625,-2.0629,-2.0633,-2.0647,-2.0652,-2.0591,-2.0591,-2.0591,-2.0591,0,-2.017,-2.0206,-2.0228,-2.0275,-2.0301,-2.0337,-2.0366,-2.039,-2.0402,-2.0424,-2.0471,-2.0506,-2.055,-2.0564,-2.0577,-2.0621,-2.0618,-2.062,-2.0613,-2.0637,-2.065,-2.0656,-2.0591,-2.0591,-2.0591,-2.0591,0,0,-2.0193,-2.0253,-2.026,-2.0282,-2.0328,-2.0356,-2.0393,-2.0434,-2.0454,-2.0489,-2.052,-2.0574,-2.0576,-2.0601,-2.0618,-2.0641,-2.0671,-2.064,-2.0642,-2.0644,-2.0721,-2.0719,-2.0724,-2.0677,-2.0678,-2.0679,-2.0718,0,-2.0227,-2.0291,-2.0313,-2.0366,-2.0399,-2.0416,-2.0448,-2.048,-2.0501,-2.0534,-2.0559,-2.0596,-2.0595,-2.0611,-2.0635,-2.0662,-2.0686,-2.066,-2.0707,-2.0708,-2.0695,-2.0732,-2.0729,-2.0764,-2.0723,-2.0724,-2.0725,0,-2.0275,-2.0309,-2.0365,-2.0407,-2.0422,-2.045,-2.049,-2.052,-2.0558,-2.0572,-2.0601,-2.0616,-2.0655,-2.0647,-2.0702,-2.0684,-2.0705,-2.0721,-2.0723,-2.0728,-2.0717,-2.0736,-2.0775,-2.078,-2.0733,-2.0732,-2.0732,0,-2.0286,-2.0346,-2.0387,-2.0405,-2.0455,-2.0474,-2.0496,-2.0532,-2.0556,-2.0592,-2.0608,-2.0648,-2.067,-2.0702,-2.0728,-2.0719,-2.0781,-2.0775,-2.0794,-2.0793,-2.0806,-2.0804,-2.0848,-2.082,-2.082,-2.082,-2.082,0,-2.0321,-2.0355,-2.0393,-2.0418,-2.0456,-2.0482,-2.052,-2.0543,-2.0575,-2.0606,-2.0624,-2.0652,-2.0685,-2.0719,-2.074,-2.0782,-2.0792,-2.0806,-2.081,-2.0803,-2.0802,-2.0817,-2.0815,-2.0822,-2.0821,-2.0821,-2.0821,0,-2.0339,-2.0366,-2.0412,-2.0455,-2.0466,-2.0493,-2.053,-2.0556,-2.0579,-2.0618,-2.0629,-2.0665,-2.0705,-2.0734,-2.0787,-2.0801,-2.0847,-2.0852,-2.0833,-2.0836,-2.0853,-2.0851,-2.0907,-2.0916,-2.0883,-2.0884,-2.0884,0,-2.0359,-2.0385,-2.0431,-2.0452,-2.0474,-2.0508,-2.0532,-2.0559,-2.0583,-2.0628,-2.0649,-2.069,-2.0724,-2.0788,-2.082,-2.086,-2.0867,-2.0884,-2.0873,-2.0865,-2.0866,-2.0864,-2.0867,-2.0885,-2.0885,-2.0885,-2.0885,0,-2.0392,-2.0404,-2.0437,-2.0476,-2.0504,-2.0535,-2.0567,-2.0584,-2.0617,-2.0644,-2.0685,-2.0711,-2.0764,-2.0806,-2.0849,-2.0873,-2.0885,-2.0889,-2.0895,-2.0888,-2.0876,-2.0882,-2.0837,-2.0887,-2.0887,-2.0887,-2.0887,-2.0886,-2.0412,-2.0436,-2.0471,-2.0508,-2.0535,-2.0564,-2.059,-2.0616,-2.065,-2.0694,-2.0709,-2.0751,-2.0789,-2.0848,-2.0873,-2.0907,-2.0906,-2.0916,-2.0918,-2.092,-2.0919,-2.0871,-2.0915,-2.0915,-2.0915,-2.0915,-2.0915,0,-2.0445,-2.0469,-2.0502,-2.0546,-2.0575,-2.0583,-2.0619,-2.0643,-2.0679,-2.0713,-2.0746,-2.0793,-2.0833,-2.0868,-2.091,-2.0931,-2.0937,-2.0941,-2.0939,-2.0945,-2.0918,-2.0908,-2.0935,-2.0935,-2.0935,-2.0935,-2.0935,-2.0935,-2.0466,-2.0507,-2.0523,-2.0577,-2.0601,-2.0641,-2.0661,-2.0689,-2.0716,-2.0767,-2.08,-2.0822,-2.0856,-2.0901,-2.0938,-2.0948,-2.0962,-2.0964,-2.0975,-2.0949,-2.0946,-2.0944,-2.0935,-2.0967,-2.0967,-2.0999,-2.0999,-2.0999]},{"header":{"parameterUnit":"m.s-1","parameterCategory":1,"la1":30.2991,"la2":30.254,"lo1":-89.0895,"lo2":-89.0444,"dy":0.0017,"dx":0.0017,"nx":28,"ny":28,"refTime":"2023-04-25T21:00:00:Z","depth":0,"parameterNumber":3,"parameterNumberName":"V-component_of_WINDS"},"data":[0,0,0,0,0,0,0,0,0,0,0,0,0,0,0,0,0,0,0,0,0,0,0,0,0,0,0,0,0,0,0,0,0,0,0,0,0,0,0,0,0,0,0,0,0,0,0,0,0,0,0,0,0,0,0,0,0,0,3.5134,3.5134,0,3.5159,3.5159,3.516,3.5137,3.5136,3.5135,3.5134,3.5157,3.5158,3.516,0,0,0,0,0,0,0,0,0,0,0,0,0,3.5065,3.5067,3.5134,3.5134,3.5135,3.5159,3.5159,3.516,3.5137,3.5136,3.5135,3.5134,3.5157,3.5158,3.516,0,0,0,0,0,0,0,0,0,0,0,0,0,3.5093,3.5067,3.5134,3.5126,3.5126,3.5159,3.5159,3.516,3.5137,3.5136,3.5134,3.5133,3.5156,3.5158,3.516,3.5202,0,0,3.5167,3.5168,0,0,0,0,0,0,0,0,3.5092,3.5096,3.5127,3.5127,3.5126,3.5143,3.5144,3.5174,3.5137,3.5133,3.5134,3.5132,3.5153,3.5156,3.5163,3.5203,3.5204,3.5167,3.5169,3.517,3.517,0,0,0,0,0,0,0,3.509,3.5095,3.5144,3.5128,3.5127,3.5121,3.5124,3.5149,3.515,3.5133,3.5131,3.5135,3.5153,3.5161,3.5164,3.5204,3.5167,3.5169,3.517,3.5171,3.5281,3.5282,0,0,0,0,0,0,3.5089,3.5093,3.5143,3.5145,3.5105,3.5124,3.5126,3.5139,3.515,3.515,3.5136,3.5134,3.5158,3.5161,3.5164,3.5215,3.5169,3.5172,3.5173,3.5279,3.5281,3.5283,0,0,0,0,0,0,3.5088,3.5094,3.5142,3.5119,3.5124,3.5126,3.5141,3.5141,3.5149,3.5152,3.5152,3.5144,3.5157,3.5161,3.5193,3.5216,3.5173,3.5175,3.5277,3.528,3.5282,3.5316,0,0,0,0,0,0,3.5086,3.5093,3.5109,3.5119,3.5126,3.5171,3.5142,3.5142,3.5153,3.515,3.516,3.5161,3.5156,3.519,3.5195,3.5218,3.5176,3.5275,3.5278,3.5281,3.5313,3.5319,3.5325,0,0,0,0,0,3.5083,3.5117,3.511,3.5116,3.5146,3.5172,3.5176,3.5171,3.5155,3.5171,3.5174,3.516,3.5212,3.5194,3.5199,3.5223,3.5274,3.5277,3.5281,3.531,3.5318,3.5325,0,0,0,0,0,0,3.5108,3.5118,3.511,3.5148,3.516,3.5168,3.5188,3.5179,3.5195,3.5191,3.5184,3.5187,3.5221,3.5225,3.5204,3.5264,3.524,3.5245,3.5261,3.5268,3.5274,3.5273,3.5178,0,0,0,0,0,3.5118,3.5139,3.5146,3.5179,3.5185,3.5186,3.5197,3.5193,3.5204,3.5209,3.5213,3.5224,3.5243,3.5256,3.5273,3.5313,3.5316,3.5332,3.5338,3.5343,3.5348,3.5371,3.5379,3.5294,3.5294,3.5294,0,0,3.5138,3.5146,3.516,3.5184,3.5193,3.5215,3.519,3.5214,3.5231,3.5212,3.5243,3.5247,3.5259,3.5296,3.5312,3.53,3.5372,3.5348,3.5352,3.5353,3.5376,3.5384,3.5391,3.5297,3.5296,3.5296,0,0,3.5187,3.5195,3.5224,3.5234,3.5247,3.5248,3.5255,3.5266,3.5268,3.5299,3.5286,3.5306,3.5338,3.5348,3.5357,3.5412,3.5401,3.5417,3.5448,3.5471,3.5478,3.5484,3.5505,3.5513,3.5422,3.5422,3.5422,0,3.5211,3.5244,3.524,3.5266,3.5278,3.5263,3.5293,3.5302,3.532,3.5328,3.5315,3.5357,3.5363,3.5403,3.5417,3.5424,3.5433,3.5416,3.5478,3.5484,3.5489,3.5509,3.5517,3.5424,3.5424,3.5423,3.5423,0,3.5274,3.5297,3.5319,3.5339,3.5353,3.538,3.538,3.5395,3.539,3.5392,3.5425,3.5432,3.5452,3.5461,3.5455,3.5501,3.5493,3.5479,3.5454,3.5499,3.5518,3.5526,3.5427,3.5426,3.5425,3.5425,0,0,3.5338,3.5357,3.5365,3.5375,3.539,3.5408,3.5435,3.5456,3.5469,3.5483,3.5506,3.5535,3.5522,3.5533,3.5528,3.5548,3.5593,3.5531,3.5531,3.5544,3.5646,3.5658,3.5667,3.5586,3.5587,3.5588,3.5645,0,3.5389,3.5438,3.5436,3.5481,3.5504,3.5491,3.5515,3.5527,3.553,3.555,3.5552,3.5574,3.5554,3.5561,3.558,3.5584,3.5614,3.5579,3.5608,3.5609,3.5607,3.5676,3.5688,3.5741,3.5652,3.5654,3.5655,0,3.5455,3.5473,3.5521,3.5535,3.5544,3.5566,3.5586,3.5605,3.5618,3.5619,3.5632,3.5624,3.5652,3.5627,3.5666,3.5643,3.5654,3.5658,3.566,3.5663,3.5635,3.5683,3.5758,3.5767,3.5666,3.5665,3.5664,0,3.5499,3.5535,3.5569,3.5578,3.5594,3.561,3.5618,3.563,3.5643,3.566,3.5669,3.5688,3.5699,3.5715,3.5713,3.5694,3.5753,3.5727,3.5755,3.5755,3.5769,3.5768,3.5849,3.5774,3.5774,3.5774,3.5774,0,3.5557,3.5588,3.559,3.5611,3.5646,3.5642,3.5676,3.5682,3.5693,3.5715,3.5705,3.5725,3.5722,3.5742,3.5741,3.5775,3.5779,3.5781,3.578,3.5783,3.5783,3.5791,3.5788,3.5776,3.5775,3.5775,3.5775,0,3.5613,3.5615,3.5652,3.5666,3.567,3.5695,3.5706,3.5726,3.5728,3.5757,3.5763,3.5767,3.5791,3.5791,3.5818,3.5817,3.5859,3.5853,3.5855,3.5854,3.5883,3.5881,3.5973,3.5985,3.5901,3.5902,3.5902,0,3.565,3.5674,3.569,3.5705,3.5714,3.5738,3.5752,3.575,3.5765,3.5784,3.5802,3.5825,3.5844,3.5884,3.5889,3.591,3.5905,3.5936,3.5908,3.5911,3.5908,3.5907,3.591,3.5942,3.5943,3.5944,3.5944,0,3.5717,3.5718,3.5739,3.5762,3.578,3.5797,3.5813,3.5825,3.5825,3.5843,3.5868,3.5883,3.5912,3.5936,3.5957,3.5964,3.5955,3.5953,3.5961,3.5964,3.5965,3.5967,3.5871,3.5951,3.595,3.595,3.5949,3.5949,3.5766,3.5787,3.5803,3.5828,3.584,3.5856,3.5876,3.5882,3.5904,3.5928,3.5925,3.5954,3.5968,3.5996,3.6005,3.6027,3.6016,3.6027,3.603,3.6034,3.6038,3.596,3.6031,3.603,3.603,3.603,3.603,0,3.5834,3.5844,3.5867,3.5891,3.591,3.5901,3.5918,3.5936,3.5962,3.5976,3.5996,3.6026,3.6049,3.6057,3.608,3.6097,3.6093,3.6103,3.6102,3.6104,3.6045,3.6037,3.6105,3.6105,3.6105,3.6105,3.6105,3.6105,3.5871,3.5908,3.5911,3.5953,3.5963,3.5992,3.6004,3.6018,3.603,3.6065,3.6085,3.609,3.6102,3.6126,3.6148,3.6149,3.6159,3.6171,3.6171,3.6116,3.6108,3.6101,3.6093,3.6173,3.6173,3.6229,3.6229,3.623]}]]